レモン彗星

C/2019 Q1 ( Lemmon )

English version
Home page
Updated on September 6, 2020

---------------------------------------------------------------------

・ プロフィール

発見日 2019年8月28日
発見光度 20.6等
発見者 D. Rankin (Mount Lemmon Survey)

・ 写真集

・ 軌道要素

Epoch 2020 July 10.0 TT = JDT 2459040.5                                         
T 2020 July 19.71827 TT                                 Rudenko                 
q   4.9970645            (2000.0)            P               Q                  
z  -0.0001665      Peri.   55.92558     +0.92267234     -0.26830752             
 +/-0.0000019      Node    42.33780     -0.30133989     -0.94983215             
e   1.0008318      Incl.  155.72158     +0.24056189     -0.16071702             
From 164 observations 2019 Aug. 28-2020 Aug. 27, mean residual 0".5.            

・ 光度変化

        m1 = 9.0 + 5 logΔ + 10.0 log r

---------------------------------------------------------------------

軌道要素はM.P.E.C. 2020-R14に掲載されたものです。
光度グラフはComet for Windowsで作成したものです。

---------------------------------------------------------------------

Copyright(C) Seiichi Yoshida (comet@aerith.net). All rights reserved.